Location: El Corozo
(10.5833°N, 66.9667°W)
Time: 23:56:39
(UTC+00:00)

Cosmos 1606 - Pass Details

Date: 23 May 2024
Orbit: 458 x 473 km, 82.5° (Epoch: 15 June)

Event Time Altitude Azimuth Distance (km) Brightness Sun altitude
Rises 09:31:23 0° 354° (N) 2,476 6.4 -8.5°
Reaches altitude 10° 09:33:27 10° 353° (N) 1,606 5.4 -8.0°
Maximum altitude 09:36:57 79° 266° (W) 476 2.4 -7.2°
Drops below altitude 10° 09:40:29 10° 180° (S) 1,618 5.0 -6.4°
Sets 09:42:34 0° 178° (S) 2,497 6.0 -5.9°
